User: anonymous   Login
Location: Unspecified
(0.0000°N, 0.0000°E)
Time: 10:21:31
(UTC+00:00)
Language:

COSMOS 2400 - Orbit

View from above orbital plane
View from above orbital plane
View from above satellite
View from above satellite

Ground track
Ground track

The orbit data is extracted from the following two-line orbital elements,

1 27868U 03037A   17080.89402426 +.00000004 +00000-0 -39757-4 0  9995
2 27868 082.4676 285.4660 0021140 239.5415 120.3577 12.45131127617707
Epoch (UTC): 21 March 2017 21:27:23
Eccentricity: 0.0021140
inclination: 82.4676°
perigee height: 1468 km
apogee height: 1501 km
right ascension of ascending node: 285.4660°
argument of perigee: 239.5415°
revolutions per day: 12.45131127
mean anomaly at epoch: 120.3577°
orbit number at epoch: 61770

The dashed part of the orbit path shows where the satellite is in the earth's shadow,  

DLR